Time,TemperatureF,DewpointF,PressureIn,WindDirection,WindDirectionDegrees,WindSpeedMPH,WindSpeedGustMPH,Humidity,HourlyPrecipIn,Conditions,Clouds,dailyrainin,SoftwareType,DateUTC
2013-01-02 00:02:00,46.9,43.3,30.18,NNW,338,3.0,10.0,87,0.00,,,0.05,meteohub,2013-01-02 06:02:00,
2013-01-02 00:07:00,46.9,43.3,30.18,NW,320,3.0,10.0,87,0.00,,,0.00,meteohub,2013-01-02 06:07:00,
2013-01-02 00:12:00,46.8,42.8,30.17,North,4,4.0,11.0,86,0.00,,,0.00,meteohub,2013-01-02 06:12:00,
2013-01-02 00:17:00,46.8,42.8,30.18,NNW,330,6.0,11.0,86,0.00,,,0.00,meteohub,2013-01-02 06:17:00,
2013-01-02 00:22:00,46.8,42.8,30.18,NNW,330,9.0,11.0,86,0.00,,,0.00,meteohub,2013-01-02 06:22:00,
2013-01-02 00:27:00,46.8,42.8,30.18,NNW,339,10.0,10.0,86,0.00,,,0.00,meteohub,2013-01-02 06:27:00,
2013-01-02 00:32:00,46.6,43.0,30.17,North,8,2.0,10.0,87,0.00,,,0.00,meteohub,2013-01-02 06:32:00,
2013-01-02 00:37:00,46.6,43.0,30.18,NNW,327,5.0,12.0,87,0.00,,,0.00,meteohub,2013-01-02 06:37:00,
2013-01-02 00:42:00,46.6,42.6,30.18,NW,322,6.0,12.0,86,0.00,,,0.00,meteohub,2013-01-02 06:42:00,
2013-01-02 00:47:00,46.4,42.8,30.18,North,359,7.0,12.0,87,0.00,,,0.00,meteohub,2013-01-02 06:47:00,
2013-01-02 00:52:00,46.4,42.8,30.18,NW,307,4.0,11.0,87,0.00,,,0.00,meteohub,2013-01-02 06:52:00,
2013-01-02 01:02:00,46.2,42.6,30.19,NW,309,2.0,9.0,87,0.00,,,0.00,meteohub,2013-01-02 07:02:00,
2013-01-02 01:07:00,46.2,42.6,30.18,NNW,346,4.0,9.0,87,0.00,,,0.00,meteohub,2013-01-02 07:07:00,
2013-01-02 01:12:00,46.2,42.6,30.17,NW,315,2.0,8.0,87,0.00,,,0.00,meteohub,2013-01-02 07:12:00,
2013-01-02 01:17:00,46.2,42.6,30.18,NNW,332,4.0,9.0,87,0.00,,,0.00,meteohub,2013-01-02 07:17:00,
2013-01-02 01:22:00,46.2,42.6,30.17,WNW,301,5.0,9.0,87,0.00,,,0.00,meteohub,2013-01-02 07:22:00,
2013-01-02 01:27:00,46.0,42.4,30.18,North,349,1.0,10.0,87,0.00,,,0.00,meteohub,2013-01-02 07:27:00,
2013-01-02 01:32:00,46.0,42.4,30.19,WSW,250,3.0,10.0,87,0.00,,,0.00,meteohub,2013-01-02 07:32:00,
2013-01-02 01:37:00,46.0,42.4,30.17,NW,325,7.0,10.0,87,0.00,,,0.00,meteohub,2013-01-02 07:37:00,
2013-01-02 01:42:00,46.0,42.4,30.17,WNW,293,8.0,12.0,87,0.00,,,0.00,meteohub,2013-01-02 07:42:00,
2013-01-02 01:47:00,45.9,42.3,30.16,NW,326,6.0,12.0,87,0.00,,,0.00,meteohub,2013-01-02 07:47:00,
2013-01-02 01:52:00,46.0,42.4,30.17,NNW,345,6.0,12.0,87,0.00,,,0.00,meteohub,2013-01-02 07:52:00,
2013-01-02 01:57:00,45.9,42.3,30.16,NNW,340,4.0,15.0,87,0.00,,,0.00,meteohub,2013-01-02 07:57:00,
2013-01-02 02:02:00,45.9,42.3,30.17,NW,309,2.0,15.0,87,0.00,,,0.00,meteohub,2013-01-02 08:02:00,
2013-01-02 02:07:00,45.9,42.3,30.18,NNW,333,3.0,10.0,87,0.00,,,0.00,meteohub,2013-01-02 08:07:00,
2013-01-02 02:12:00,45.9,42.3,30.19,WNW,293,0.0,10.0,87,0.00,,,0.00,meteohub,2013-01-02 08:12:00,
2013-01-02 02:17:00,45.9,42.3,30.19,NW,320,5.0,10.0,87,0.00,,,0.00,meteohub,2013-01-02 08:17:00,
2013-01-02 02:22:00,45.9,42.3,30.19,NNW,340,3.0,13.0,87,0.00,,,0.00,meteohub,2013-01-02 08:22:00,
2013-01-02 02:27:00,45.9,42.3,30.18,NNW,338,3.0,13.0,87,0.00,,,0.00,meteohub,2013-01-02 08:27:00,
2013-01-02 02:32:00,45.9,42.3,30.18,North,358,3.0,13.0,87,0.00,,,0.00,meteohub,2013-01-02 08:32:00,
2013-01-02 02:37:00,45.9,42.3,30.19,NW,322,4.0,12.0,87,0.00,,,0.00,meteohub,2013-01-02 08:37:00,
2013-01-02 02:42:00,45.9,42.3,30.19,NNW,333,5.0,12.0,87,0.00,,,0.00,meteohub,2013-01-02 08:42:00,
2013-01-02 02:47:00,45.9,42.3,30.19,NNW,340,5.0,10.0,87,0.00,,,0.00,meteohub,2013-01-02 08:47:00,
2013-01-02 02:52:00,45.9,42.3,30.19,NNE,25,5.0,10.0,87,0.00,,,0.00,meteohub,2013-01-02 08:52:00,
2013-01-02 02:57:00,45.7,42.1,30.19,NW,315,2.0,10.0,87,0.00,,,0.00,meteohub,2013-01-02 08:57:00,
2013-01-02 03:02:00,45.7,42.1,30.19,NW,314,1.0,10.0,87,0.00,,,0.00,meteohub,2013-01-02 09:02:00,
2013-01-02 03:07:00,45.7,42.1,30.19,NNW,333,5.0,10.0,87,0.00,,,0.00,meteohub,2013-01-02 09:07:00,
2013-01-02 03:12:00,45.7,42.3,30.19,NNW,345,4.0,10.0,88,0.00,,,0.00,meteohub,2013-01-02 09:12:00,
2013-01-02 03:17:00,45.7,42.3,30.19,WNW,301,2.0,10.0,88,0.00,,,0.00,meteohub,2013-01-02 09:17:00,
2013-01-02 03:22:00,45.5,41.9,30.19,NW,326,6.0,10.0,87,0.00,,,0.00,meteohub,2013-01-02 09:22:00,
2013-01-02 03:27:00,45.5,41.9,30.20,WNW,292,3.0,11.0,87,0.00,,,0.00,meteohub,2013-01-02 09:27:00,
2013-01-02 03:32:00,45.5,41.9,30.21,North,352,2.0,12.0,87,0.00,,,0.00,meteohub,2013-01-02 09:32:00,
2013-01-02 03:37:00,45.5,41.9,30.21,NNE,19,3.0,12.0,87,0.00,,,0.00,meteohub,2013-01-02 09:37:00,
2013-01-02 03:42:00,45.5,41.9,30.20,NW,309,3.0,12.0,87,0.00,,,0.00,meteohub,2013-01-02 09:42:00,
2013-01-02 03:47:00,45.5,41.9,30.21,North,349,3.0,11.0,87,0.00,,,0.00,meteohub,2013-01-02 09:47:00,
2013-01-02 03:52:00,45.5,41.9,30.21,NNW,330,4.0,11.0,87,0.00,,,0.00,meteohub,2013-01-02 09:52:00,
2013-01-02 03:57:00,45.3,41.7,30.20,ENE,65,0.0,10.0,87,0.00,,,0.00,meteohub,2013-01-02 09:57:00,
2013-01-02 04:02:00,45.3,41.7,30.20,NNW,330,4.0,10.0,87,0.00,,,0.00,meteohub,2013-01-02 10:02:00,
2013-01-02 04:07:00,45.3,41.9,30.19,NNW,329,4.0,10.0,88,0.00,,,0.00,meteohub,2013-01-02 10:07:00,
2013-01-02 04:12:00,45.1,41.7,30.19,NNW,328,7.0,10.0,88,0.00,,,0.00,meteohub,2013-01-02 10:12:00,
2013-01-02 04:17:00,45.1,41.7,30.19,NNE,17,5.0,10.0,88,0.00,,,0.00,meteohub,2013-01-02 10:17:00,
2013-01-02 04:22:00,45.1,41.7,30.19,NNW,347,6.0,9.0,88,0.00,,,0.00,meteohub,2013-01-02 10:22:00,
2013-01-02 04:27:00,45.1,41.7,30.19,WNW,302,2.0,9.0,88,0.00,,,0.00,meteohub,2013-01-02 10:27:00,
2013-01-02 04:32:00,45.0,41.5,30.19,NNW,328,5.0,10.0,88,0.00,,,0.00,meteohub,2013-01-02 10:32:00,
2013-01-02 04:37:00,45.0,41.5,30.19,North,354,5.0,10.0,88,0.00,,,0.00,meteohub,2013-01-02 10:37:00,
2013-01-02 04:42:00,45.0,41.5,30.20,NW,322,5.0,10.0,88,0.00,,,0.00,meteohub,2013-01-02 10:42:00,
2013-01-02 04:47:00,45.0,41.5,30.20,NNW,343,2.0,12.0,88,0.00,,,0.00,meteohub,2013-01-02 10:47:00,
2013-01-02 04:52:00,45.0,41.5,30.20,NW,326,2.0,12.0,88,0.00,,,0.00,meteohub,2013-01-02 10:52:00,
2013-01-02 04:57:00,45.0,41.5,30.21,NW,309,2.0,12.0,88,0.00,,,0.00,meteohub,2013-01-02 10:57:00,
2013-01-02 05:02:00,45.0,41.5,30.22,NNW,346,6.0,10.0,88,0.00,,,0.00,meteohub,2013-01-02 11:02:00,
2013-01-02 05:07:00,45.0,41.5,30.22,NW,314,4.0,10.0,88,0.00,,,0.00,meteohub,2013-01-02 11:07:00,
2013-01-02 05:12:00,45.0,41.4,30.22,NW,313,3.0,10.0,87,0.00,,,0.00,meteohub,2013-01-02 11:12:00,
2013-01-02 05:17:00,45.0,41.4,30.22,NNW,345,6.0,12.0,87,0.00,,,0.00,meteohub,2013-01-02 11:17:00,
2013-01-02 05:22:00,44.8,41.4,30.21,NNE,23,1.0,12.0,88,0.00,,,0.00,meteohub,2013-01-02 11:22:00,
2013-01-02 05:27:00,44.8,41.4,30.21,NNW,330,4.0,11.0,88,0.00,,,0.00,meteohub,2013-01-02 11:27:00,
2013-01-02 05:32:00,44.8,41.2,30.20,WNW,290,4.0,8.0,87,0.00,,,0.00,meteohub,2013-01-02 11:32:00,
2013-01-02 05:37:00,44.6,41.0,30.20,NW,322,8.0,10.0,87,0.00,,,0.00,meteohub,2013-01-02 11:37:00,
2013-01-02 05:42:00,44.4,40.8,30.20,NNW,329,2.0,13.0,87,0.00,,,0.00,meteohub,2013-01-02 11:42:00,
2013-01-02 05:47:00,44.4,40.8,30.20,NNW,338,3.0,13.0,87,0.00,,,0.00,meteohub,2013-01-02 11:47:00,
2013-01-02 05:52:00,44.4,40.8,30.20,NE,37,7.0,13.0,87,0.00,,,0.00,meteohub,2013-01-02 11:52:00,
2013-01-02 05:57:00,44.4,41.2,30.20,NW,322,3.0,13.0,88,0.00,,,0.00,meteohub,2013-01-02 11:57:00,
2013-01-02 06:02:00,44.2,41.0,30.21,NW,314,7.0,13.0,88,0.00,,,0.00,meteohub,2013-01-02 12:02:00,
2013-01-02 06:07:00,44.2,41.2,30.21,NW,321,0.0,13.0,89,0.00,,,0.00,meteohub,2013-01-02 12:07:00,
2013-01-02 06:12:00,44.1,41.0,30.22,North,349,2.0,10.0,89,0.00,,,0.00,meteohub,2013-01-02 12:12:00,
2013-01-02 06:17:00,44.1,41.0,30.22,NNE,17,6.0,8.0,89,0.00,,,0.00,meteohub,2013-01-02 12:17:00,
2013-01-02 06:22:00,43.9,40.8,30.22,NW,319,2.0,8.0,89,0.00,,,0.00,meteohub,2013-01-02 12:22:00,
2013-01-02 06:27:00,43.7,41.0,30.22,NW,325,3.0,8.0,90,0.00,,,0.00,meteohub,2013-01-02 12:27:00,
2013-01-02 06:32:00,43.7,40.6,30.23,WNW,283,3.0,8.0,89,0.00,,,0.00,meteohub,2013-01-02 12:32:00,
2013-01-02 06:37:00,43.7,40.6,30.24,NNW,338,3.0,9.0,89,0.00,,,0.00,meteohub,2013-01-02 12:37:00,
2013-01-02 06:42:00,43.5,40.5,30.24,NNW,346,5.0,9.0,89,0.00,,,0.00,meteohub,2013-01-02 12:42:00,
2013-01-02 06:47:00,43.5,40.8,30.24,NNE,27,1.0,9.0,90,0.00,,,0.00,meteohub,2013-01-02 12:47:00,
2013-01-02 06:52:00,43.5,40.8,30.24,NW,314,2.0,9.0,90,0.00,,,0.00,meteohub,2013-01-02 12:52:00,
2013-01-02 06:57:00,43.5,40.8,30.23,NNW,333,1.0,11.0,90,0.00,,,0.00,meteohub,2013-01-02 12:57:00,
2013-01-02 07:02:00,43.5,41.0,30.23,North,353,0.0,11.0,91,0.00,,,0.00,meteohub,2013-01-02 13:02:00,
2013-01-02 07:07:00,43.5,40.8,30.24,NW,325,3.0,10.0,90,0.00,,,0.00,meteohub,2013-01-02 13:07:00,
2013-01-02 07:12:00,43.3,40.8,30.24,NNW,340,2.0,11.0,91,0.00,,,0.00,meteohub,2013-01-02 13:12:00,
2013-01-02 07:17:00,43.3,40.8,30.24,NNE,18,3.0,11.0,91,0.00,,,0.00,meteohub,2013-01-02 13:17:00,
2013-01-02 07:22:00,43.2,40.6,30.25,NW,321,4.0,11.0,91,0.00,,,0.00,meteohub,2013-01-02 13:22:00,
2013-01-02 07:27:00,43.2,40.6,30.25,North,354,2.0,8.0,91,0.00,,,0.00,meteohub,2013-01-02 13:27:00,
2013-01-02 07:32:00,43.0,40.5,30.25,NW,321,1.0,8.0,91,0.00,,,0.00,meteohub,2013-01-02 13:32:00,
2013-01-02 07:37:00,43.0,40.5,30.26,West,276,0.0,8.0,91,0.00,,,0.00,meteohub,2013-01-02 13:37:00,
2013-01-02 07:42:00,43.0,40.5,30.26,NNW,329,4.0,7.0,91,0.00,,,0.00,meteohub,2013-01-02 13:42:00,
2013-01-02 07:47:00,43.0,40.5,30.26,NW,326,6.0,7.0,91,0.00,,,0.00,meteohub,2013-01-02 13:47:00,
2013-01-02 07:52:00,42.8,40.3,30.26,NNW,343,2.0,9.0,91,0.00,,,0.00,meteohub,2013-01-02 13:52:00,
2013-01-02 07:57:00,43.0,40.3,30.27,NNW,347,4.0,9.0,90,0.00,,,0.00,meteohub,2013-01-02 13:57:00,
2013-01-02 08:02:00,43.0,40.3,30.26,NNW,333,4.0,9.0,90,0.00,,,0.00,meteohub,2013-01-02 14:02:00,
2013-01-02 08:07:00,43.0,40.3,30.26,NNE,25,5.0,9.0,90,0.00,,,0.00,meteohub,2013-01-02 14:07:00,
2013-01-02 08:12:00,43.0,40.3,30.27,NW,323,6.0,9.0,90,0.00,,,0.00,meteohub,2013-01-02 14:12:00,
2013-01-02 08:17:00,43.0,40.3,30.26,NNE,13,1.0,9.0,90,0.00,,,0.00,meteohub,2013-01-02 14:17:00,
2013-01-02 08:22:00,42.8,39.7,30.26,NNE,12,1.0,7.0,89,0.00,,,0.00,meteohub,2013-01-02 14:22:00,
2013-01-02 08:27:00,42.8,39.7,30.26,NNE,18,6.0,11.0,89,0.00,,,0.00,meteohub,2013-01-02 14:27:00,
2013-01-02 08:32:00,42.6,39.6,30.26,NW,314,2.0,11.0,89,0.00,,,0.00,meteohub,2013-01-02 14:32:00,
2013-01-02 08:37:00,42.6,39.6,30.27,NNE,15,2.0,9.0,89,0.00,,,0.00,meteohub,2013-01-02 14:37:00,
2013-01-02 08:42:00,42.6,39.9,30.27,NW,321,1.0,9.0,90,0.00,,,0.00,meteohub,2013-01-02 14:42:00,
2013-01-02 08:47:00,42.8,40.1,30.28,NNW,338,1.0,8.0,90,0.00,,,0.00,meteohub,2013-01-02 14:47:00,
2013-01-02 08:52:00,42.8,39.7,30.28,NNW,330,3.0,8.0,89,0.00,,,0.00,meteohub,2013-01-02 14:52:00,
2013-01-02 08:57:00,42.8,39.7,30.28,North,6,2.0,8.0,89,0.00,,,0.00,meteohub,2013-01-02 14:57:00,
2013-01-02 09:02:00,43.0,39.9,30.28,NNE,12,2.0,7.0,89,0.00,,,0.00,meteohub,2013-01-02 15:02:00,
2013-01-02 09:07:00,43.0,39.9,30.28,NNW,338,2.0,7.0,89,0.00,,,0.00,meteohub,2013-01-02 15:07:00,
2013-01-02 09:12:00,43.0,39.7,30.28,NNW,333,6.0,7.0,88,0.00,,,0.00,meteohub,2013-01-02 15:12:00,
2013-01-02 09:17:00,43.0,39.7,30.28,NW,325,3.0,7.0,88,0.00,,,0.00,meteohub,2013-01-02 15:17:00,
2013-01-02 09:27:00,42.8,39.7,30.28,NNW,342,6.0,9.0,89,0.01,,,0.01,meteohub,2013-01-02 15:27:00,
2013-01-02 09:37:00,42.8,39.7,30.27,NW,305,0.0,9.0,89,0.01,,,0.01,meteohub,2013-01-02 15:37:00,
2013-01-02 09:42:00,43.0,40.3,30.27,North,353,1.0,9.0,90,0.01,,,0.01,meteohub,2013-01-02 15:42:00,
2013-01-02 09:47:00,42.8,40.1,30.27,NNW,345,2.0,7.0,90,0.01,,,0.01,meteohub,2013-01-02 15:47:00,
2013-01-02 09:52:00,42.8,39.6,30.27,NNE,20,0.0,7.0,88,0.01,,,0.01,meteohub,2013-01-02 15:52:00,
2013-01-02 09:57:00,42.6,39.6,30.27,NNE,33,0.0,8.0,89,0.01,,,0.01,meteohub,2013-01-02 15:57:00,
2013-01-02 10:02:00,42.6,39.6,30.29,NNW,334,2.0,8.0,89,0.01,,,0.01,meteohub,2013-01-02 16:02:00,
2013-01-02 10:07:00,42.6,39.9,30.29,North,357,0.0,9.0,90,0.01,,,0.01,meteohub,2013-01-02 16:07:00,
2013-01-02 10:12:00,42.6,39.6,30.29,NNE,17,4.0,9.0,89,0.01,,,0.01,meteohub,2013-01-02 16:12:00,
2013-01-02 10:17:00,42.6,39.9,30.29,NW,314,2.0,9.0,90,0.02,,,0.02,meteohub,2013-01-02 16:17:00,
2013-01-02 10:22:00,42.4,39.4,30.30,East,79,0.0,7.0,89,0.02,,,0.02,meteohub,2013-01-02 16:22:00,
2013-01-02 10:27:00,42.4,39.7,30.30,NNW,328,1.0,6.0,90,0.01,,,0.02,meteohub,2013-01-02 16:27:00,
2013-01-02 10:32:00,42.4,39.7,30.30,NNW,333,1.0,6.0,90,0.01,,,0.02,meteohub,2013-01-02 16:32:00,
2013-01-02 10:37:00,42.4,39.9,30.30,NW,325,1.0,5.0,91,0.01,,,0.02,meteohub,2013-01-02 16:37:00,
2013-01-02 10:42:00,42.4,39.9,30.30,NW,319,3.0,6.0,91,0.01,,,0.02,meteohub,2013-01-02 16:42:00,
2013-01-02 10:47:00,42.4,39.9,30.29,North,350,2.0,6.0,91,0.02,,,0.03,meteohub,2013-01-02 16:47:00,
2013-01-02 10:52:00,42.4,39.9,30.28,NW,326,3.0,7.0,91,0.02,,,0.03,meteohub,2013-01-02 16:52:00,
2013-01-02 10:57:00,42.3,39.7,30.28,North,5,0.0,8.0,91,0.02,,,0.03,meteohub,2013-01-02 16:57:00,
2013-01-02 11:02:00,42.3,40.1,30.27,West,281,3.0,8.0,92,0.02,,,0.03,meteohub,2013-01-02 17:02:00,
2013-01-02 11:07:00,42.3,39.7,30.28,North,357,3.0,7.0,91,0.02,,,0.03,meteohub,2013-01-02 17:07:00,
2013-01-02 11:12:00,42.3,40.1,30.28,North,349,2.0,9.0,92,0.02,,,0.03,meteohub,2013-01-02 17:12:00,
2013-01-02 11:17:00,42.3,39.7,30.28,NNW,345,1.0,9.0,91,0.01,,,0.03,meteohub,2013-01-02 17:17:00,
2013-01-02 11:22:00,42.3,40.1,30.28,West,259,0.0,9.0,92,0.01,,,0.03,meteohub,2013-01-02 17:22:00,
2013-01-02 11:27:00,42.4,40.3,30.29,NE,48,2.0,6.0,92,0.01,,,0.03,meteohub,2013-01-02 17:27:00,
2013-01-02 11:32:00,42.4,39.9,30.29,North,8,2.0,8.0,91,0.01,,,0.03,meteohub,2013-01-02 17:32:00,
2013-01-02 11:37:00,42.4,39.9,30.28,North,6,4.0,8.0,91,0.01,,,0.03,meteohub,2013-01-02 17:37:00,
2013-01-02 11:42:00,42.4,39.9,30.28,WNW,287,0.0,8.0,91,0.01,,,0.03,meteohub,2013-01-02 17:42:00,
2013-01-02 11:47:00,42.4,39.9,30.28,NW,325,1.0,6.0,91,0.01,,,0.04,meteohub,2013-01-02 17:47:00,
2013-01-02 11:52:00,42.4,39.9,30.28,NNE,23,3.0,6.0,91,0.01,,,0.04,meteohub,2013-01-02 17:52:00,
2013-01-02 11:57:00,42.4,39.9,30.27,NW,319,2.0,7.0,91,0.01,,,0.04,meteohub,2013-01-02 17:57:00,
2013-01-02 12:02:00,42.4,39.9,30.27,NNW,347,3.0,7.0,91,0.01,,,0.04,meteohub,2013-01-02 18:02:00,
2013-01-02 12:07:00,42.4,39.9,30.27,NNE,15,3.0,7.0,91,0.01,,,0.04,meteohub,2013-01-02 18:07:00,
2013-01-02 12:12:00,42.4,39.9,30.27,NNW,328,3.0,6.0,91,0.01,,,0.04,meteohub,2013-01-02 18:12:00,
2013-01-02 12:17:00,42.4,39.9,30.27,WNW,302,1.0,5.0,91,0.01,,,0.04,meteohub,2013-01-02 18:17:00,
2013-01-02 12:22:00,42.4,39.9,30.26,NW,326,3.0,5.0,91,0.01,,,0.04,meteohub,2013-01-02 18:22:00,
2013-01-02 12:27:00,42.4,40.3,30.25,NE,46,0.0,7.0,92,0.01,,,0.04,meteohub,2013-01-02 18:27:00,
2013-01-02 12:32:00,42.4,39.9,30.25,North,352,4.0,7.0,91,0.01,,,0.04,meteohub,2013-01-02 18:32:00,
2013-01-02 12:37:00,42.4,39.9,30.25,North,11,4.0,7.0,91,0.02,,,0.05,meteohub,2013-01-02 18:37:00,
2013-01-02 12:42:00,42.4,40.3,30.25,NNW,342,1.0,6.0,92,0.02,,,0.05,meteohub,2013-01-02 18:42:00,
2013-01-02 12:47:00,42.4,40.3,30.25,NE,39,2.0,5.0,92,0.02,,,0.06,meteohub,2013-01-02 18:47:00,
2013-01-02 12:52:00,42.4,40.6,30.25,North,10,1.0,5.0,93,0.02,,,0.06,meteohub,2013-01-02 18:52:00,
2013-01-02 12:57:00,42.4,40.3,30.24,NNW,340,3.0,5.0,92,0.02,,,0.06,meteohub,2013-01-02 18:57:00,
2013-01-02 13:02:00,42.4,40.6,30.24,NNW,330,1.0,5.0,93,0.02,,,0.06,meteohub,2013-01-02 19:02:00,
2013-01-02 13:07:00,42.4,40.6,30.24,NNW,332,3.0,5.0,93,0.03,,,0.07,meteohub,2013-01-02 19:07:00,
2013-01-02 13:12:00,42.4,40.6,30.24,NNW,338,0.0,5.0,93,0.03,,,0.07,meteohub,2013-01-02 19:12:00,
2013-01-02 13:17:00,42.4,40.6,30.24,NNW,338,2.0,5.0,93,0.03,,,0.07,meteohub,2013-01-02 19:17:00,
2013-01-02 13:22:00,42.6,40.8,30.24,WNW,294,4.0,5.0,93,0.03,,,0.07,meteohub,2013-01-02 19:22:00,
2013-01-02 13:27:00,42.6,40.8,30.23,NNW,346,4.0,6.0,93,0.03,,,0.07,meteohub,2013-01-02 19:27:00,
2013-01-02 13:32:00,42.6,40.8,30.23,North,359,3.0,6.0,93,0.02,,,0.07,meteohub,2013-01-02 19:32:00,
2013-01-02 13:37:00,42.6,41.0,30.23,NNW,327,2.0,6.0,94,0.02,,,0.07,meteohub,2013-01-02 19:37:00,
2013-01-02 13:42:00,42.8,41.2,30.24,NW,323,4.0,6.0,94,0.02,,,0.07,meteohub,2013-01-02 19:42:00,
2013-01-02 13:47:00,42.8,41.2,30.24,West,276,0.0,5.0,94,0.01,,,0.07,meteohub,2013-01-02 19:47:00,
2013-01-02 13:52:00,42.6,41.0,30.24,NW,307,5.0,7.0,94,0.02,,,0.08,meteohub,2013-01-02 19:52:00,
2013-01-02 13:57:00,42.6,41.0,30.24,WNW,297,2.0,9.0,94,0.02,,,0.08,meteohub,2013-01-02 19:57:00,
2013-01-02 14:02:00,42.4,40.8,30.24,NW,326,1.0,9.0,94,0.02,,,0.08,meteohub,2013-01-02 20:02:00,
2013-01-02 14:07:00,42.4,40.8,30.24,West,271,9.0,9.0,94,0.01,,,0.08,meteohub,2013-01-02 20:07:00,
2013-01-02 14:12:00,42.4,40.8,30.24,NNW,338,5.0,9.0,94,0.02,,,0.09,meteohub,2013-01-02 20:12:00,
2013-01-02 14:17:00,42.3,40.5,30.24,NW,311,5.0,9.0,93,0.02,,,0.09,meteohub,2013-01-02 20:17:00,
2013-01-02 14:22:00,42.3,40.5,30.23,NNW,342,6.0,9.0,93,0.02,,,0.09,meteohub,2013-01-02 20:22:00,
2013-01-02 14:27:00,42.3,40.6,30.23,NW,326,1.0,8.0,94,0.02,,,0.09,meteohub,2013-01-02 20:27:00,
2013-01-02 14:32:00,42.3,40.6,30.22,WNW,290,3.0,7.0,94,0.02,,,0.09,meteohub,2013-01-02 20:32:00,
2013-01-02 14:37:00,42.3,41.0,30.22,North,9,3.0,7.0,95,0.03,,,0.10,meteohub,2013-01-02 20:37:00,
2013-01-02 14:42:00,42.1,40.3,30.22,NNW,339,3.0,9.0,93,0.03,,,0.10,meteohub,2013-01-02 20:42:00,
2013-01-02 14:47:00,42.1,40.5,30.22,West,273,1.0,9.0,94,0.02,,,0.10,meteohub,2013-01-02 20:47:00,
2013-01-02 14:52:00,42.1,40.5,30.23,NW,305,3.0,9.0,94,0.02,,,0.10,meteohub,2013-01-02 20:52:00,
2013-01-02 14:57:00,42.1,40.5,30.22,NW,326,3.0,7.0,94,0.02,,,0.10,meteohub,2013-01-02 20:57:00,
2013-01-02 15:02:00,41.9,40.3,30.23,WNW,298,2.0,7.0,94,0.02,,,0.10,meteohub,2013-01-02 21:02:00,
2013-01-02 15:07:00,41.9,40.3,30.23,NE,56,0.0,7.0,94,0.01,,,0.10,meteohub,2013-01-02 21:07:00,
2013-01-02 15:12:00,41.9,40.3,30.23,NW,309,1.0,7.0,94,0.01,,,0.10,meteohub,2013-01-02 21:12:00,
2013-01-02 15:17:00,41.7,40.1,30.22,NNE,18,0.0,8.0,94,0.02,,,0.11,meteohub,2013-01-02 21:17:00,
2013-01-02 15:22:00,41.7,40.1,30.23,NNW,329,3.0,8.0,94,0.02,,,0.11,meteohub,2013-01-02 21:22:00,
2013-01-02 15:27:00,41.7,40.1,30.23,West,280,0.0,8.0,94,0.02,,,0.11,meteohub,2013-01-02 21:27:00,
2013-01-02 15:32:00,41.7,40.1,30.23,WNW,284,4.0,5.0,94,0.02,,,0.12,meteohub,2013-01-02 21:32:00,
2013-01-02 15:37:00,41.7,40.1,30.23,North,4,0.0,7.0,94,0.02,,,0.12,meteohub,2013-01-02 21:37:00,
2013-01-02 15:42:00,41.7,40.5,30.23,WNW,294,0.0,7.0,95,0.02,,,0.12,meteohub,2013-01-02 21:42:00,
2013-01-02 15:47:00,41.7,40.1,30.23,NNW,328,2.0,7.0,94,0.02,,,0.12,meteohub,2013-01-02 21:47:00,
2013-01-02 15:52:00,41.5,40.3,30.23,NNW,338,0.0,5.0,95,0.02,,,0.12,meteohub,2013-01-02 21:52:00,
2013-01-02 15:57:00,41.5,40.3,30.23,North,353,0.0,5.0,95,0.02,,,0.12,meteohub,2013-01-02 21:57:00,
2013-01-02 16:02:00,41.5,39.9,30.23,NW,318,1.0,6.0,94,0.02,,,0.12,meteohub,2013-01-02 22:02:00,
2013-01-02 16:07:00,41.5,40.3,30.23,NNW,333,2.0,6.0,95,0.03,,,0.13,meteohub,2013-01-02 22:07:00,
2013-01-02 16:12:00,41.7,40.5,30.23,NNW,342,5.0,6.0,95,0.02,,,0.13,meteohub,2013-01-02 22:12:00,
2013-01-02 16:17:00,41.5,40.3,30.23,NW,309,1.0,6.0,95,0.02,,,0.13,meteohub,2013-01-02 22:17:00,
2013-01-02 16:22:00,41.5,40.3,30.23,North,354,0.0,5.0,95,0.02,,,0.13,meteohub,2013-01-02 22:22:00,
2013-01-02 16:27:00,41.5,40.3,30.24,NW,322,2.0,6.0,95,0.02,,,0.13,meteohub,2013-01-02 22:27:00,
2013-01-02 16:32:00,41.5,40.3,30.24,WNW,290,0.0,6.0,95,0.01,,,0.13,meteohub,2013-01-02 22:32:00,
2013-01-02 16:37:00,41.5,40.3,30.24,WNW,294,4.0,6.0,95,0.01,,,0.13,meteohub,2013-01-02 22:37:00,
2013-01-02 16:42:00,41.5,40.3,30.24,WNW,298,0.0,4.0,95,0.01,,,0.13,meteohub,2013-01-02 22:42:00,
2013-01-02 16:47:00,41.5,40.3,30.24,North,357,0.0,4.0,95,0.02,,,0.14,meteohub,2013-01-02 22:47:00,
2013-01-02 16:52:00,41.5,40.3,30.25,WNW,294,5.0,5.0,95,0.02,,,0.14,meteohub,2013-01-02 22:52:00,
2013-01-02 16:57:00,41.5,40.3,30.25,WNW,284,0.0,5.0,95,0.02,,,0.14,meteohub,2013-01-02 22:57:00,
2013-01-02 17:02:00,41.5,40.3,30.25,NW,323,0.0,5.0,95,0.02,,,0.14,meteohub,2013-01-02 23:02:00,
2013-01-02 17:12:00,41.5,40.3,30.25,NNW,328,3.0,6.0,95,0.01,,,0.14,meteohub,2013-01-02 23:12:00,
2013-01-02 17:17:00,41.5,40.3,30.25,WSW,256,1.0,6.0,95,0.01,,,0.14,meteohub,2013-01-02 23:17:00,
2013-01-02 17:22:00,41.5,40.3,30.25,WNW,298,1.0,6.0,95,0.01,,,0.14,meteohub,2013-01-02 23:22:00,
2013-01-02 17:27:00,41.4,40.1,30.25,North,359,4.0,5.0,95,0.01,,,0.14,meteohub,2013-01-02 23:27:00,
2013-01-02 17:32:00,41.4,40.1,30.25,WNW,295,0.0,5.0,95,0.02,,,0.15,meteohub,2013-01-02 23:32:00,
2013-01-02 17:37:00,41.4,40.1,30.25,NNW,342,1.0,4.0,95,0.02,,,0.15,meteohub,2013-01-02 23:37:00,
2013-01-02 17:47:00,41.4,40.1,30.25,NNW,342,1.0,3.0,95,0.01,,,0.15,meteohub,2013-01-02 23:47:00,
2013-01-02 17:52:00,41.4,40.1,30.25,NNW,330,1.0,4.0,95,0.01,,,0.15,meteohub,2013-01-02 23:52:00,
2013-01-02 17:57:00,41.4,40.1,30.25,NNW,338,0.0,4.0,95,0.01,,,0.15,meteohub,2013-01-02 23:57:00,
2013-01-02 18:02:00,41.4,40.1,30.25,NW,322,1.0,4.0,95,0.01,,,0.15,meteohub,2013-01-03 00:02:00,
2013-01-02 18:07:00,41.4,40.1,30.25,North,8,0.0,4.0,95,0.01,,,0.15,meteohub,2013-01-03 00:07:00,
2013-01-02 18:12:00,41.4,40.1,30.25,NW,314,1.0,3.0,95,0.01,,,0.15,meteohub,2013-01-03 00:12:00,
2013-01-02 18:17:00,41.2,39.9,30.25,NNW,335,2.0,6.0,95,0.01,,,0.15,meteohub,2013-01-03 00:17:00,
2013-01-02 18:22:00,41.2,39.9,30.25,NNE,17,0.0,6.0,95,0.01,,,0.15,meteohub,2013-01-03 00:22:00,
2013-01-02 18:27:00,41.2,39.9,30.25,NNW,345,1.0,6.0,95,0.00,,,0.15,meteohub,2013-01-03 00:27:00,
2013-01-02 18:32:00,41.2,39.9,30.25,NNE,30,0.0,5.0,95,0.00,,,0.15,meteohub,2013-01-03 00:32:00,
2013-01-02 18:37:00,41.2,39.9,30.26,North,1,0.0,3.0,95,0.00,,,0.15,meteohub,2013-01-03 00:37:00,
2013-01-02 18:47:00,41.2,39.9,30.27,NNW,342,0.0,2.0,95,0.01,,,0.16,meteohub,2013-01-03 00:47:00,
2013-01-02 18:52:00,41.2,39.9,30.27,NNW,345,1.0,3.0,95,0.01,,,0.16,meteohub,2013-01-03 00:52:00,
2013-01-02 18:57:00,41.2,39.9,30.27,NW,307,1.0,4.0,95,0.01,,,0.16,meteohub,2013-01-03 00:57:00,
2013-01-02 19:02:00,41.2,39.9,30.27,NNW,335,1.0,4.0,95,0.01,,,0.16,meteohub,2013-01-03 01:02:00,
2013-01-02 19:07:00,41.2,39.9,30.27,NNW,329,1.0,4.0,95,0.01,,,0.16,meteohub,2013-01-03 01:07:00,
2013-01-02 19:12:00,41.2,39.9,30.27,NNW,339,0.0,4.0,95,0.01,,,0.16,meteohub,2013-01-03 01:12:00,
2013-01-02 19:17:00,41.2,39.9,30.27,NNW,328,1.0,4.0,95,0.01,,,0.16,meteohub,2013-01-03 01:17:00,
2013-01-02 19:27:00,41.2,39.9,30.27,NNW,332,0.0,4.0,95,0.01,,,0.16,meteohub,2013-01-03 01:27:00,
2013-01-02 19:32:00,41.2,39.9,30.28,NNW,338,1.0,4.0,95,0.01,,,0.16,meteohub,2013-01-03 01:32:00,
2013-01-02 19:37:00,41.2,39.9,30.28,NNW,347,1.0,4.0,95,0.01,,,0.16,meteohub,2013-01-03 01:37:00,
2013-01-02 19:42:00,41.4,40.1,30.28,NW,311,2.0,4.0,95,0.01,,,0.16,meteohub,2013-01-03 01:42:00,
2013-01-02 19:47:00,41.4,40.1,30.27,NNE,15,0.0,5.0,95,0.00,,,0.16,meteohub,2013-01-03 01:47:00,
2013-01-02 19:52:00,41.2,39.9,30.27,NNE,15,2.0,5.0,95,0.00,,,0.16,meteohub,2013-01-03 01:52:00,
2013-01-02 19:57:00,41.2,39.9,30.28,NNW,328,1.0,5.0,95,0.00,,,0.16,meteohub,2013-01-03 01:57:00,
2013-01-02 20:02:00,41.2,39.9,30.28,NNW,345,2.0,3.0,95,0.00,,,0.16,meteohub,2013-01-03 02:02:00,
2013-01-02 20:07:00,41.4,40.1,30.28,NNW,338,2.0,3.0,95,0.00,,,0.16,meteohub,2013-01-03 02:07:00,
2013-01-02 20:12:00,41.2,39.9,30.28,NNW,329,2.0,3.0,95,0.00,,,0.16,meteohub,2013-01-03 02:12:00,
2013-01-02 20:17:00,41.2,39.6,30.28,North,350,0.0,4.0,94,0.00,,,0.16,meteohub,2013-01-03 02:17:00,
2013-01-02 20:22:00,41.2,39.6,30.28,NNW,330,0.0,4.0,94,0.00,,,0.16,meteohub,2013-01-03 02:22:00,
2013-01-02 20:27:00,41.2,39.6,30.27,ENE,60,1.0,4.0,94,0.00,,,0.16,meteohub,2013-01-03 02:27:00,
2013-01-02 20:37:00,41.0,39.4,30.27,North,9,0.0,4.0,94,0.00,,,0.16,meteohub,2013-01-03 02:37:00,
2013-01-02 20:42:00,41.0,39.4,30.27,NNE,13,2.0,4.0,94,0.00,,,0.16,meteohub,2013-01-03 02:42:00,
2013-01-02 20:47:00,40.8,39.0,30.27,NNW,345,2.0,4.0,93,0.00,,,0.16,meteohub,2013-01-03 02:47:00,
2013-01-02 20:52:00,40.8,38.7,30.28,NW,318,0.0,4.0,92,0.00,,,0.16,meteohub,2013-01-03 02:52:00,
2013-01-02 20:57:00,40.8,38.7,30.28,West,279,1.0,5.0,92,0.00,,,0.16,meteohub,2013-01-03 02:57:00,
2013-01-02 21:02:00,40.8,38.5,30.29,North,357,0.0,5.0,91,0.00,,,0.16,meteohub,2013-01-03 03:02:00,
2013-01-02 21:07:00,40.8,38.7,30.29,NNW,332,3.0,6.0,92,0.00,,,0.16,meteohub,2013-01-03 03:07:00,
2013-01-02 21:17:00,40.8,38.5,30.29,NNW,345,3.0,6.0,91,0.00,,,0.16,meteohub,2013-01-03 03:17:00,
2013-01-02 21:22:00,41.0,38.7,30.29,NNW,328,4.0,5.0,91,0.00,,,0.16,meteohub,2013-01-03 03:22:00,
2013-01-02 21:27:00,40.8,38.5,30.29,NNW,327,0.0,5.0,91,0.00,,,0.16,meteohub,2013-01-03 03:27:00,
2013-01-02 21:32:00,40.8,38.5,30.29,NNW,338,1.0,5.0,91,0.00,,,0.16,meteohub,2013-01-03 03:32:00,
2013-01-02 21:41:00,41.0,38.7,30.28,North,9,1.0,5.0,91,0.00,,,0.16,meteohub,2013-01-03 03:41:00,
2013-01-02 21:47:00,40.8,38.5,30.28,North,9,0.0,3.0,91,0.00,,,0.16,meteohub,2013-01-03 03:47:00,
2013-01-02 21:52:00,40.8,38.7,30.28,NW,325,0.0,3.0,92,0.00,,,0.16,meteohub,2013-01-03 03:52:00,
2013-01-02 21:57:00,40.8,38.5,30.29,NNW,327,1.0,5.0,91,0.00,,,0.16,meteohub,2013-01-03 03:57:00,
2013-01-02 22:02:00,40.8,38.5,30.29,NW,309,0.0,5.0,91,0.00,,,0.16,meteohub,2013-01-03 04:02:00,
2013-01-02 22:07:00,40.8,38.1,30.29,North,4,2.0,5.0,90,0.00,,,0.16,meteohub,2013-01-03 04:07:00,
2013-01-02 22:12:00,40.8,38.5,30.29,North,4,0.0,5.0,91,0.00,,,0.16,meteohub,2013-01-03 04:12:00,
2013-01-02 22:17:00,40.8,38.5,30.29,NNE,27,0.0,4.0,91,0.00,,,0.16,meteohub,2013-01-03 04:17:00,
2013-01-02 22:22:00,40.8,38.5,30.28,NNE,20,0.0,4.0,91,0.00,,,0.16,meteohub,2013-01-03 04:22:00,
2013-01-02 22:27:00,40.8,38.5,30.28,NE,48,0.0,4.0,91,0.00,,,0.16,meteohub,2013-01-03 04:27:00,
2013-01-02 22:32:00,40.8,38.5,30.30,NW,318,3.0,4.0,91,0.00,,,0.16,meteohub,2013-01-03 04:32:00,
2013-01-02 22:37:00,41.2,38.5,30.30,NNW,342,1.0,8.0,90,0.00,,,0.16,meteohub,2013-01-03 04:37:00,
2013-01-02 22:42:00,41.2,38.5,30.29,North,9,1.0,8.0,90,0.00,,,0.16,meteohub,2013-01-03 04:42:00,
2013-01-02 22:47:00,41.2,38.1,30.29,NNW,347,3.0,8.0,89,0.00,,,0.16,meteohub,2013-01-03 04:47:00,
2013-01-02 22:52:00,41.0,37.9,30.28,NE,51,4.0,4.0,89,0.00,,,0.16,meteohub,2013-01-03 04:52:00,
2013-01-02 22:57:00,41.0,37.9,30.28,NE,47,2.0,8.0,89,0.00,,,0.16,meteohub,2013-01-03 04:57:00,
2013-01-02 23:02:00,41.2,37.9,30.30,North,354,4.0,8.0,88,0.00,,,0.16,meteohub,2013-01-03 05:02:00,
2013-01-02 23:07:00,41.2,37.9,30.29,NNW,333,6.0,9.0,88,0.00,,,0.16,meteohub,2013-01-03 05:07:00,
2013-01-02 23:12:00,41.2,37.9,30.29,North,5,0.0,9.0,88,0.00,,,0.16,meteohub,2013-01-03 05:12:00,
2013-01-02 23:17:00,41.2,37.9,30.30,NNW,347,3.0,6.0,88,0.00,,,0.16,meteohub,2013-01-03 05:17:00,
2013-01-02 23:22:00,41.2,37.9,30.30,North,5,0.0,7.0,88,0.00,,,0.16,meteohub,2013-01-03 05:22:00,
2013-01-02 23:27:00,41.2,37.9,30.29,NNE,32,1.0,7.0,88,0.00,,,0.16,meteohub,2013-01-03 05:27:00,
2013-01-02 23:32:00,41.2,37.9,30.30,NNW,343,3.0,7.0,88,0.00,,,0.16,meteohub,2013-01-03 05:32:00,
2013-01-02 23:37:00,41.2,38.1,30.29,NE,44,1.0,5.0,89,0.00,,,0.16,meteohub,2013-01-03 05:37:00,
2013-01-02 23:42:00,41.2,38.1,30.29,NW,324,3.0,5.0,89,0.00,,,0.16,meteohub,2013-01-03 05:42:00,
2013-01-02 23:47:00,41.2,38.1,30.29,North,5,4.0,5.0,89,0.00,,,0.16,meteohub,2013-01-03 05:47:00,
2013-01-02 23:52:00,41.2,38.1,30.30,NW,307,1.0,5.0,89,0.00,,,0.16,meteohub,2013-01-03 05:52:00,
2013-01-02 23:57:00,41.2,38.1,30.29,NNE,29,1.0,5.0,89,0.00,,,0.16,meteohub,2013-01-03 05:57:00,